Location: Forst
(46.9333°N, 15.4333°E)
Time: 06:15:30
(UTC+00:00)

Meteor 1-20 Rocket - Pass Details

Date: 01 December 2020
Orbit: 819 x 892 km, 81.2° (Epoch: 18 January)

Event Time Altitude Azimuth Distance (km) Brightness Sun altitude
Rises 15:54:10 0° 351° (N) 3,517 7.3 -7.3°
Reaches altitude 10° 15:56:40 10° 354° (N) 2,573 6.5 -7.7°
Maximum altitude 16:02:29 63° 76° (ENE) 992 4.3 -8.6°
Drops below altitude 10° 16:08:14 10° 157° (SSE) 2,534 6.7 -9.5°
Sets 16:10:40 0° 161° (SSE) 3,460 7.4 -9.9°
